Regional Weather Roundup
Issued by NWS

Home | Current Version | Previous Version | Text Only | Print | Product List | Glossary Off
Versions: 1 2 3 4 5 6 7 8 9 10 11 12 13 14 15 16 17 18 19 20 21 22 23 24 25 26 27 28 29 30 31 32 33 34 35 36 37 38 39 40 41 42 43 44 45 46 47 48 49 50

000
ASUS45 KCYS 220510
RWRWY

WYOMING REGIONAL WEATHER ROUNDUP
NATIONAL WEATHER SERVICE CHEYENNE WY
1100 PM MDT THU MAY 21 2015

NOTE:  "FAIR" INDICATES FEW OR NO CLOUDS BELOW 12,000 FEET
WITH NO SIGNIFICANT WEATHER AND/OR OBSTRUCTIONS TO VISIBILITY.

WYZ001-220600-
YELLOWSTONE NATIONAL PARK

CITY           SKY/WX    TMP DP  RH WIND       PRES   REMARKS
LK YELLOWSTONE   N/A     35  31  85 CALM      30.09S
W YELLOWSTONE  NOT AVBL

$$
WYZ002>013-054>058-071-098>099-220600-
NORTHERN WYOMING

CITY           SKY/WX    TMP DP  RH WIND       PRES   REMARKS
JACKSON        FAIR      46  39  76 N6        30.03R
CODY           MOCLDY    48  43  81 SW17      30.00F
GREYBULL       MOCLDY    60  43  53 S10       29.96R
WORLAND        FAIR      56  43  61 SW3       29.98R
SHERIDAN       FAIR      52  42  69 SE15      30.00F
BUFFALO        FAIR      47  42  83 SE8       30.06F
GILLETTE       FAIR      49  41  74 SE13      30.08S
HULETT         FAIR      45  37  76 CALM      30.11F
NEWCASTLE      CLOUDY    50  39  66 SE14      30.12F

$$
WYZ014>020-022>026-101>103-220600-
CENTRAL WYOMING

CITY           SKY/WX    TMP DP  RH WIND       PRES   REMARKS
BIG PINEY      LGT RAIN  45  42  89 W7        30.06R
PINEDALE       CLOUDY    45  41  87 CALM      30.06R
DUBOIS         RAIN      39  37  93 CALM      30.07S
LANDER         CLOUDY    50  41  71 NW6       30.02S
RIVERTON         N/A     50  43  77 E5        30.04R
CASPER         FAIR      47  41  80 E13       30.04S
DOUGLAS        CLOUDY    48  43  82 SE14      30.07F

$$
WYZ021-027>030-104>119-220600-
SOUTHERN WYOMING

CITY           SKY/WX    TMP DP  RH WIND       PRES   REMARKS
EVANSTON       FAIR      41  39  93 SE9       30.03F
KEMMERER       CLOUDY    41  39  93 S6        30.07R
FORT BRIDGER   DRIZZLE   43  43 100 SW5       30.08S
ROCK SPRINGS   CLOUDY    45  41  86 NE9       30.03F
DIXON          MOCLDY    49  44  83 E14G20    30.03F
RAWLINS        HVY RAIN  44  41  89 SW5       30.09R FOG
SARATOGA       MOCLDY    45  41  87 NW10      30.07R
LARAMIE        CLOUDY    43  39  86 SE20G25   30.09F
CHEYENNE       CLOUDY    45  42  89 SE15      30.11F
TORRINGTON     CLOUDY    50  44  80 SE13      30.10F
PINE BLUFFS    CLOUDY    46  43  87 SE14      30.13F

$$


USA.gov is the U.S. government's official web portal to all federal, state and local government web resources and services.